Back to catalog

STARLINK-32489

AliveCommunicationsVLEO
NORAD 61893·PAYLOAD·🇺🇸 United States

Launched Nov 9, 2024 from Vandenberg Space Force Base

Loading…

Next Passes (next 24 hours)

TLE

FreshSource: CelesTrak SupGP

Epoch: Sep 14, 2026, 14:40 UTC

1 61893C 24204V   26257.61159722 -.00020963  00000+0 -61979-3 0  2577
2 61893  53.1590 325.1715 0001259  81.7972 299.8402 15.34379007    11

Track STARLINK-32489 in real time with AllMySat

Download on the App Store